Location: Newark
(43.4306°N, 0.3089°E)
Time: 20:08:33
(UTC+00:00)

A-11 Canister half - Pass Details

Date: 29 August 2019
Orbit: 1514 x 1686 km, 47.2° (Epoch: 13 October)

Event Time Altitude Azimuth Distance (km) Brightness Sun altitude
Rises 21:34:08 0° 294° (WNW) 4,746 12.6 -27.8°
Reaches altitude 10° 21:37:11 10° 292° (WNW) 3,782 11.8 -28.2°
Maximum altitude 21:46:45 71° 211° (SSW) 1,702 9.0 -29.3°
Enters shadow 21:49:00 56° 154° (SSE) 1,892 9.0 -29.6°
